カタログに戻る

VSP RF B1

運用中軍事SSO
NORAD 59137·PAYLOAD·🇧🇪 Belgium

打ち上げ Mar 4, 2024 から Vandenberg Space Force Base

Loading…

次のパス (今後24時間)

TLE

最新Source: Space-Track

元期: Sep 14, 2026, 14:33 UTC

1 59137U 24043AR  26257.60672506  .00002731  00000-0  12029-3 0  9992
2 59137  97.5747  35.4570 0001254  71.0329 289.1043 15.22705244140648

AllMySatでVSP RF B1をリアルタイム追跡

Download on the App Store